Helicity
522 541 551 539 501 390 401 487 427 229 207 197 166 154 144 188 170 153 141 154 182 173 160 174 174 191 177 153 158 134 119 105 97 68 65 79 97 104 77 51 59 80 75
546 596 568 526 365 405 378 390 298 193 201 177 160 137 128 187 184 159 135 154 161 155 145 170 175 164 137 139 103 79 54 41 74 86 91 81 83 75 90 96 83 79 75
618 589 452 303 303 411 515 209 208 282 242 191 146 115 128 187 171 124 118 138 161 206 204 179 153 154 157 121 97 80 68 81 111 129 113 102 106 96 106 102 89 71 62
625 485 351 291 309 342 264 384 252 243 197 153 126 103 121 183 171 131 195 270 252 218 182 155 151 177 132 102 81 87 104 111 113 123 111 96 90 88 107 90 61 46 43
560 443 279 292 410 412 476 248 199 155 123 99 79 84 149 184 192 197 216 241 240 198 157 123 144 131 108 96 129 115 118 114 116 124 114 94 85 83 69 59 41 31 28
444 390 467 520 522 489 265 152 117 101 91 95 132 127 144 179 190 199 190 200 192 169 131 109 119 112 155 167 153 141 125 110 109 139 119 111 96 82 71 59 61 56 65
530 545 527 583 650 312 277 212 123 87 90 115 115 119 135 201 162 175 193 191 175 149 122 110 121 138 136 128 118 106 88 73 112 120 116 91 81 79 90 58 67 101 124
659 697 756 786 523 322 345 231 148 91 95 120 131 131 156 159 169 177 193 204 182 142 118 124 120 112 126 118 104 82 76 85 92 101 115 79 91 88 98 78 88 111 106
705 792 856 668 556 424 214 168 102 82 92 120 137 155 168 183 174 176 210 203 169 134 104 101 111 138 116 110 83 60 62 81 69 58 47 42 42 43 50 59 37 4 -4
924 856 852 637 196 123 98 59 65 84 90 116 139 169 172 188 151 159 183 195 161 137 95 120 128 110 105 78 64 73 71 76 88 82 81 78 81 68 47 57 38 14 19
875 603 238 100 55 27 38 63 76 99 106 106 120 157 178 200 158 139 138 183 169 141 119 110 111 105 68 44 49 91 104 96 96 91 92 83 66 60 63 63 59 39 20
347 113 60 49 30 -3 38 78 108 113 114 122 169 179 191 164 148 143 135 148 143 160 130 112 84 71 50 36 47 49 44 78 112 106 119 85 79 57 52 65 43 31 37
93 96 69 39 46 64 91 94 119 118 143 161 225 208 189 156 155 102 138 142 146 147 145 108 58 46 34 37 30 31 47 102 114 113 110 99 93 78 40 25 39 39 37
88 78 72 79 90 101 102 115 135 143 152 166 199 203 187 177 169 179 192 156 100 135 132 112 90 73 65 57 52 47 69 88 110 110 105 102 95 71 56 47 50 41 7
74 79 90 109 110 120 131 141 160 148 163 176 182 196 197 199 193 163 171 177 160 150 158 165 129 98 74 55 66 65 67 76 96 108 82 76 75 69 61 47 35 33 9
92 118 123 126 133 150 158 155 140 131 118 111 100 141 151 146 155 157 148 140 128 156 203 208 165 115 78 56 71 59 60 72 114 94 81 72 68 67 57 30 14 14 22
147 146 162 164 179 181 194 201 175 170 117 133 91 78 81 93 131 137 134 120 119 129 203 185 162 132 93 71 72 76 67 87 105 91 85 60 62 63 55 34 -4 -8 9
149 176 215 227 245 242 240 236 255 219 200 181 174 125 92 66 86 106 88 112 163 140 144 159 151 137 110 79 65 85 87 134 110 86 69 59 53 60 48 42 -2 -19 -12
179 216 237 256 280 274 261 245 259 233 228 192 183 165 128 93 87 96 87 136 166 164 153 140 135 133 113 89 78 84 132 131 104 81 72 63 54 64 42 34 35 -23 -22
166 175 190 192 191 196 209 224 217 170 147 166 156 199 136 155 173 139 140 167 166 148 145 148 148 149 115 90 91 118 137 125 97 77 69 71 64 67 49 38 34 1 -24
168 183 185 196 197 200 204 181 182 176 152 138 157 137 92 112 122 172 151 181 158 152 137 135 125 128 136 127 133 170 173 140 108 97 92 88 91 62 40 44 34 12 1
177 172 162 163 161 154 139 109 90 162 166 156 126 121 76 88 59 83 96 152 205 167 147 132 123 120 126 130 139 170 193 168 137 130 119 99 98 65 46 40 32 31 10
155 163 173 161 141 115 129 84 69 118 128 118 120 129 118 87 88 122 80 99 158 146 134 134 112 119 136 146 179 166 177 171 148 149 132 124 108 82 66 46 38 33 28
149 141 153 149 127 129 126 120 85 141 153 152 130 109 130 136 88 75 75 75 70 99 127 132 142 135 154 162 184 195 171 173 180 158 155 158 128 98 79 65 50 42 37
129 145 151 125 136 148 133 83 130 144 181 124 98 83 72 60 41 51 69 138 92 73 52 50 74 79 98 150 203 211 205 196 214 217 200 178 129 116 99 70 56 47 47
127 116 109 119 128 126 93 19 59 72 65 99 123 108 106 77 74 73 46 66 70 100 89 78 69 46 58 91 156 251 238 200 225 224 203 164 130 103 87 65 56 52 52
Wind_Speed
9 14 19 21 24 27 34 38 34 38 47 47 50 54 56 52 55 60 66 62 62 65 62 65 64 58 57 52 50 52 56 59 68 72 74 75 82 84 84 82 80 78 72
12 17 21 24 27 34 36 34 38 34 43 48 53 56 55 51 54 60 63 61 59 61 64 65 60 58 55 48 51 54 55 61 67 80 78 81 78 79 77 77 75 73 72
14 19 25 28 34 36 34 41 32 39 44 50 55 55 55 50 54 59 57 54 57 60 64 65 64 58 53 48 51 53 58 60 62 69 79 74 71 72 73 70 69 69 69
20 24 30 31 32 34 37 33 40 44 48 54 54 56 55 50 54 60 59 51 55 58 60 64 61 50 48 50 49 52 55 59 64 66 68 69 67 66 65 69 68 70 74
22 28 30 30 34 30 39 44 46 48 52 55 55 57 52 51 55 57 56 57 58 58 60 58 48 46 49 45 46 52 56 61 63 62 61 61 62 65 67 61 73 78 75
26 31 28 29 36 49 49 43 49 52 52 54 54 57 56 55 53 53 56 55 54 56 57 51 44 45 44 42 44 50 58 66 69 62 59 54 54 56 64 70 73 75 73
25 26 32 38 46 42 45 50 54 56 56 58 60 60 62 55 53 53 53 51 51 49 47 47 43 41 39 41 48 55 60 64 53 50 49 50 54 59 59 66 59 53 52
29 35 42 46 44 42 50 54 56 59 59 60 62 65 60 56 51 52 51 49 48 44 45 43 43 42 36 42 50 57 61 60 53 45 46 48 46 44 42 43 39 36 38
36 41 45 47 50 53 56 59 57 59 62 62 65 64 58 59 54 51 47 45 40 41 40 43 43 35 35 44 53 59 61 55 48 46 46 45 48 48 51 51 54 57 58
42 45 51 53 53 56 56 54 54 62 65 64 62 57 56 59 53 45 41 39 38 39 41 41 36 32 37 45 50 51 58 54 49 50 50 46 46 47 54 48 45 46 42
45 47 48 49 47 48 55 58 60 61 62 63 62 58 57 52 45 38 34 34 34 36 38 37 33 29 34 42 47 43 41 41 44 46 47 47 51 52 52 46 38 34 32
47 49 43 45 55 58 59 60 58 60 65 65 63 60 52 49 45 39 33 29 27 30 34 32 30 26 35 45 43 36 33 33 39 40 43 50 49 55 57 47 36 31 22
46 47 52 55 54 54 58 61 63 66 66 69 61 61 58 51 46 41 32 26 24 27 29 25 27 25 27 35 31 26 30 30 32 38 47 50 47 51 57 60 44 31 22
49 51 53 54 56 56 61 62 65 67 64 63 63 63 61 54 46 40 34 25 24 26 25 22 22 24 24 25 27 25 27 28 32 38 46 47 44 53 60 60 59 38 35
53 54 55 55 59 61 61 62 62 61 61 65 62 61 60 56 46 39 34 30 28 25 25 23 22 28 34 33 23 26 31 29 34 37 47 51 54 53 56 61 59 55 44
55 56 59 60 61 63 66 67 56 58 61 57 57 57 56 49 47 37 32 29 26 24 26 25 26 31 31 32 25 25 31 27 29 37 44 46 51 55 54 61 60 58 53
55 58 60 62 66 67 64 63 67 64 56 55 56 53 53 50 41 38 30 28 24 24 25 24 24 26 24 22 22 23 27 27 28 36 41 43 45 49 55 58 61 59 57
62 62 64 66 65 65 66 66 64 63 72 69 59 53 54 48 41 37 31 29 29 24 24 24 22 21 22 22 19 15 23 22 28 34 37 39 40 46 52 55 60 58 56
73 72 71 71 70 71 72 70 68 66 66 64 64 57 53 47 39 34 30 28 28 27 23 21 22 19 17 17 17 17 15 19 26 31 31 34 34 42 47 51 55 57 55
80 80 82 82 83 82 79 76 69 63 66 63 61 56 59 55 43 36 32 27 26 25 22 21 20 18 16 14 13 14 12 17 21 25 25 28 30 35 40 43 51 57 54
87 88 88 88 88 85 81 75 67 62 60 61 59 60 58 55 39 33 33 26 23 22 22 21 21 19 14 12 12 12 10 11 14 19 19 20 28 31 34 37 43 52 53
91 92 93 93 90 87 81 76 66 56 52 52 58 57 59 55 54 43 38 28 25 21 22 24 24 22 18 12 10 9 7 9 9 11 13 17 21 28 32 35 41 46 48
94 94 94 90 83 79 73 74 59 44 40 44 51 56 55 57 52 44 44 37 29 25 26 27 29 30 24 18 14 11 8 7 5 7 9 15 18 25 30 33 37 42 44
91 91 93 95 79 73 70 67 58 40 36 48 55 60 61 61 59 52 47 45 42 39 36 35 33 29 28 22 19 15 13 11 9 9 9 12 17 24 28 30 33 37 40
91 89 88 86 82 81 75 67 58 52 51 55 59 60 64 64 65 63 59 57 55 44 46 47 43 37 29 23 20 16 14 12 11 10 12 13 17 21 25 29 31 33 36
86 85 85 82 81 78 73 69 63 60 59 60 61 62 63 63 62 63 64 67 70 68 64 50 49 43 36 27 17 12 11 10 10 9 13 15 19 21 24 27 29 30 33
Wind_Direction
314 329 329 331 335 336 334 334 337 330 333 338 338 337 336 338 340 340 340 340 340 340 340 340 341 346 346 346 346 342 338 335 327 325 326 326 323 321 320 319 318 315 315
319 327 329 332 332 331 331 332 332 331 333 336 337 335 335 337 339 339 339 340 340 340 340 342 345 346 344 346 343 338 337 335 331 325 327 326 326 325 324 322 321 319 317
328 327 325 324 324 324 331 327 331 333 334 335 334 333 333 335 337 338 338 338 340 341 342 344 343 343 343 343 342 340 337 337 336 333 329 331 331 329 327 327 325 322 321
324 323 321 322 323 327 327 335 333 332 332 333 333 332 331 331 333 336 338 338 337 339 342 342 343 347 346 343 341 340 340 339 338 336 336 335 335 334 333 329 327 326 323
323 323 324 323 331 338 335 331 332 331 330 331 331 331 334 333 333 335 336 334 334 338 341 343 345 347 345 344 345 342 342 340 340 339 339 340 339 337 335 336 328 326 327
328 330 340 342 338 332 330 330 332 330 330 332 335 334 332 332 332 334 335 334 337 339 341 345 346 348 350 352 351 347 344 340 338 341 342 343 342 341 337 334 331 330 331
337 341 338 332 331 331 333 331 328 327 326 326 329 332 329 331 332 333 334 336 338 342 343 346 346 348 348 348 345 344 345 344 348 348 347 349 346 342 341 336 341 344 342
340 339 338 337 335 336 336 331 330 330 328 326 327 328 329 330 332 333 334 336 339 342 344 345 344 343 347 347 344 344 346 349 353 356 354 350 348 349 349 349 349 349 349
342 342 343 342 336 334 332 333 332 330 329 328 327 329 330 331 333 333 335 337 338 342 344 344 343 347 348 346 343 344 347 355 1 0 359 359 355 354 350 351 351 350 348
345 343 339 337 335 330 330 331 333 331 329 330 329 331 333 332 333 335 339 339 336 339 342 344 347 347 346 344 345 348 346 355 3 4 4 5 3 360 351 355 359 358 0
343 341 337 334 331 330 331 330 329 331 331 331 330 331 333 336 337 336 335 336 335 341 344 345 345 345 346 345 346 352 358 5 7 9 9 10 4 0 357 360 6 7 5
338 333 333 335 333 330 329 329 328 330 330 330 331 332 335 337 336 334 331 329 332 337 341 344 345 343 341 341 346 355 1 7 9 12 12 9 10 1 356 2 8 9 14
341 339 336 334 334 333 331 332 331 330 330 329 330 331 333 334 334 333 329 325 328 330 335 340 345 347 346 345 349 356 1 5 10 11 10 10 13 7 359 352 8 17 23
340 337 336 335 335 335 333 333 332 332 334 333 332 330 330 331 332 333 332 328 327 332 332 331 337 341 344 344 348 356 359 6 9 10 10 13 17 8 359 354 358 19 20
339 338 337 336 334 333 333 334 334 334 334 332 332 331 330 328 327 329 329 325 325 326 333 332 332 335 336 337 343 351 353 359 3 9 7 9 10 13 7 354 354 6 17
336 336 334 333 331 330 329 330 333 333 334 333 331 330 329 324 325 323 325 324 324 328 331 327 326 330 331 332 336 342 347 354 3 5 6 10 10 10 12 354 349 354 9
334 333 331 329 327 326 326 325 325 327 326 328 329 330 331 328 323 318 314 317 315 318 317 321 324 328 331 332 333 337 341 349 358 360 3 6 10 12 10 3 341 343 349
330 327 325 324 324 323 321 320 318 319 323 326 328 327 330 331 327 321 314 314 315 309 311 314 316 323 327 330 331 332 340 349 349 353 358 4 9 8 8 9 343 334 336
333 330 326 323 321 319 319 318 316 314 316 321 325 324 327 326 325 321 315 309 311 306 304 305 317 319 319 321 324 326 332 341 345 350 356 1 8 5 6 5 3 333 330
333 331 329 327 325 322 320 318 316 317 319 318 320 321 324 324 321 318 317 308 308 305 304 303 310 314 319 318 320 325 320 332 341 348 354 0 5 6 7 8 2 348 330
331 329 328 327 325 323 320 318 315 316 319 321 322 324 325 323 316 318 318 311 302 301 300 299 306 310 307 310 317 324 317 319 333 345 354 1 1 4 5 9 7 352 352
333 331 329 327 326 325 322 320 315 312 317 320 323 326 327 324 321 321 321 313 307 302 306 306 304 306 306 293 293 303 294 313 326 343 353 356 2 1 359 2 1 355 353
333 332 331 329 328 327 326 326 319 318 317 324 327 328 328 326 321 319 319 320 312 312 312 307 307 309 307 300 291 284 278 265 295 333 345 350 355 356 354 357 356 352 354
337 336 338 339 334 332 331 329 321 315 332 335 334 334 334 331 328 323 319 319 318 315 313 310 307 305 307 303 298 286 283 301 312 316 328 338 341 345 345 350 352 350 351
341 341 340 338 339 340 342 343 344 339 336 334 332 331 329 326 319 316 320 321 316 317 313 309 309 307 305 298 295 290 282 288 302 312 324 329 332 336 339 341 343 344 345
345 344 343 341 338 336 336 336 335 335 333 332 332 331 330 329 326 321 314 308 304 301 300 308 307 311 312 311 299 283 281 286 294 297 319 320 322 326 329 334 336 340 341